OneWeb SL0021

operational
NORAD ID: 45134 Int'l Des: 2020-008 Owner: ONEWEB Country: UK Constellation: oneweb
LEOCIRCULARPOLARONEWEB_TYPE

Über OneWeb SL0021

Beschreibung wird geladen...

Live-Position

3D-Globus wird geladen...

Nächste Überflüge

Höhenverlauf

Altitude vs Time

uPlot chart will show altitude changes over time

Zweizeiliger Elementsatz

1 45134U 20008D 25257.56327137 -.00000566 00000-0 -16569-2 0 9990
2 45134 87.8736 91.2577 0001585 84.0088 276.1220 13.10371756272551
Epoch: 14. Sept. 2025 • Age: 19 hours

Aktueller Status

Höhe 1241.9 km
Geschwindigkeit 7.23 km/s
Subsatellitenpunkt -49.31°S, 143.83°E
Startdatum 6. Feb. 2020
Alter 5.6 years
Typ internet

Technische Details

Klassifizierung Payload
Masse 148.00 kg
Trockenmasse 140.00 kg
Gesamtmasse 148.00 kg
Länge 1.30 m
Durchmesser 1.00 m
Spannweite 5.00 m
Form Trapezoid+2 pan
Hersteller ONEWUS
Bus-Typ ARROW
Phasenstatus In Orbit
Besitzer/Staat ONEWEB/UK

Große Konstellationen

Loading constellations...